x

9063020 - Buffalo, Ny (bufn6) Weather Station

8:30pm - Tue 25th Nov 2014 All times are CST. -6 hours from GMT.

  • Wind
    13mph, 15mph gusts
  • Air Temp 35°f
  • Sea Pressure 1021.5mb
  • 9063020 - Buffalo, Ny
  • 9063020 - Buffalo, Ny

More Historic Weather Station data

Upgrade to MSW Pro to gain access to the past 30 days of data for over 8000 Wavebouys and Weather Stations around the globe.

Join Pro

Comparision Forecast

View Surf forecast
   
Tue 11/25 8:30pm 13 15 mph 1021.5mb 35f
8:24pm 14 16 mph 1021.3mb 35f
8:18pm 13 16 mph 1021.1mb 35f
8:12pm 16 17 mph 1021.1mb 35f
8:06pm 15 17 mph 1021mb 35f
8:00pm 14 16 mph 1021mb 35f
7:54pm 13 20 mph 1020.9mb 35f
7:48pm 14 20 mph 1020.8mb 35f
7:42pm 16 20 mph 1020.7mb 35f
7:36pm 15 18 mph 1020.7mb 35f
7:30pm 16 21 mph 1020.5mb 35f
7:24pm 15 20 mph 1020.4mb 35f
7:18pm 15 20 mph 1020.5mb 35f
7:12pm 17 21 mph 1020.4mb 35f
7:06pm 17 22 mph 1020.4mb 35f
7:00pm 17 22 mph 1020.4mb 35f
6:54pm 16 21 mph 1020.2mb 35f
6:48pm 17 21 mph 1020mb 35f
6:42pm 16 23 mph 1019.9mb 35f
6:36pm 16 22 mph 1019.8mb 35f
6:30pm 16 22 mph 1019.7mb 35f
6:24pm 18 23 mph 1019.6mb 35f
6:18pm 23 28 mph 1019.4mb 35f
6:12pm 22 29 mph 1019.4mb 35f
6:06pm 21 28 mph 1019.3mb 35f
6:00pm 21 24 mph 1019.1mb 35f
5:54pm 20 25 mph 1019mb 35f
5:48pm 17 23 mph 1018.9mb 35f
5:42pm 21 25 mph 1018.7mb 36f
5:36pm 20 26 mph 1018.5mb 36f
5:30pm 22 25 mph 1018.5mb 36f
5:24pm 18 24 mph 1018.4mb 36f
5:18pm 22 26 mph 1018.3mb 35f
5:12pm 16 25 mph 1018.3mb 35f
5:06pm 22 29 mph 1018mb 35f
5:00pm 20 22 mph 1017.8mb 35f
4:54pm 21 28 mph 1017.7mb 36f
4:48pm 25 37 mph 1017.5mb 37f
4:42pm 29 36 mph 1017.4mb 37f
4:36pm 21 29 mph 1017.4mb 37f
4:30pm 22 29 mph 1017.2mb 36f
4:24pm 24 29 mph 1017.1mb 37f
4:18pm 23 33 mph 1017mb 37f
4:12pm 24 30 mph 1016.8mb 37f
4:06pm 25 30 mph 1016.8mb 37f
4:00pm 24 30 mph 1016.6mb 37f
3:54pm 28 34 mph 1016.5mb 37f
3:48pm 29 38 mph 1016.4mb 37f
3:42pm 32 45 mph 1016mb 38f
3:36pm 36 45 mph 1015.9mb 39f
3:30pm 32 39 mph 1015.8mb 39f
3:24pm 30 41 mph 1015.9mb 39f
3:18pm 33 45 mph 1015.7mb 39f
3:12pm 36 44 mph 1015.5mb 38f
3:06pm 34 43 mph 1015.4mb 39f
3:00pm 34 43 mph 1015.4mb 39f
2:54pm 38 44 mph 1015.1mb 38f
2:48pm 36 41 mph 1014.9mb 39f
2:42pm 34 38 mph 1015.1mb 38f
2:36pm 28 38 mph 1015.1mb 38f
2:30pm 26 36 mph 1014.9mb 38f
2:24pm 28 33 mph 1014.8mb 38f
2:18pm 31 39 mph 1014.8mb 38f
2:12pm 31 41 mph 1014.6mb 39f
2:06pm 32 41 mph 1014.5mb 39f
2:00pm 32 43 mph 1014.6mb 39f
1:54pm 33 40 mph 1014.3mb 39f
1:48pm 36 40 mph 1014.4mb 39f
1:42pm 32 40 mph 1014.5mb 39f
1:36pm 34 40 mph 1014.3mb 39f
1:30pm 34 41 mph 1014.1mb 39f
1:24pm 37 45 mph 1014.2mb 39f
1:18pm 31 40 mph 1014.1mb 40f
1:12pm 30 45 mph 1014mb 39f
1:06pm 34 41 mph 1014mb 40f
1:00pm 31 44 mph 1013.9mb 40f
12:54pm 31 44 mph 1013.8mb 40f
12:48pm 29 45 mph 1013.8mb 40f
12:42pm 33 44 mph 1013.6mb 40f
12:36pm 36 44 mph 1013.6mb 40f
12:30pm 38 46 mph 1013.6mb 40f
12:24pm 38 48 mph 1013.4mb 40f
12:18pm 37 46 mph 1013.5mb 40f
12:12pm 36 46 mph 1013.5mb 40f
12:06pm 38 47 mph 1013.5mb 40f
12:00pm 36 44 mph 1013.3mb 40f
11:54am 30 41 mph 1013.1mb 40f
11:48am 26 40 mph 1013.3mb 40f
11:42am 29 38 mph 1013.3mb 40f
11:36am 26 40 mph 1013.3mb 40f
11:30am 29 37 mph 1013.3mb 40f
11:24am 28 39 mph 1013.1mb 40f
11:18am 26 40 mph 1012.9mb 40f
11:12am 22 39 mph 1012.8mb 40f
11:06am 24 37 mph 1013mb 40f
11:00am 26 38 mph 1013.1mb 40f
10:54am 26 34 mph 1013.1mb 40f
10:48am 28 38 mph 1013.1mb 40f
10:42am 24 39 mph 1013.2mb 40f
10:36am 26 38 mph 1013mb 40f
10:30am 28 40 mph 1012.7mb 40f
10:24am 30 37 mph 1012.7mb 40f
10:18am 28 37 mph 1012.9mb 40f
10:12am 31 41 mph 1012.8mb 40f
10:06am 26 39 mph 1012.8mb 40f
10:00am 31 41 mph 1012.7mb 40f
9:54am 28 37 mph 1012.6mb 40f
9:48am 28 34 mph 1012.6mb 40f
9:42am 29 40 mph 1012.4mb 40f
9:36am 26 40 mph 1012.2mb 40f
9:30am 29 36 mph 1012.1mb 40f
9:24am 29 37 mph 1012.1mb 40f
9:18am 23 36 mph 1011.9mb 40f
9:12am 28 38 mph 1012mb 40f
9:06am 24 37 mph 1012mb 40f
9:00am 25 38 mph 1011.8mb 40f
8:54am 30 40 mph 1011.8mb 40f
8:48am 30 41 mph 1011.9mb 40f
8:42am 25 38 mph 1011.8mb 40f
8:36am 26 38 mph 1011.7mb 40f
8:30am 26 39 mph 1011.8mb 40f
8:24am 24 43 mph 1011.8mb 40f
8:18am 29 39 mph - -
8:12am 26 39 mph - -
8:06am 23 37 mph - -
8:00am 28 36 mph 1011.5mb 41f
7:54am 23 40 mph 1011.4mb 41f
7:48am 29 36 mph 1011.1mb 41f
7:42am 31 39 mph 1011.1mb 41f
7:36am 28 38 mph 1011.1mb 41f
7:30am 28 37 mph 1011.1mb 41f
7:24am 29 40 mph 1011mb 41f
7:18am 30 37 mph 1010.7mb 41f
7:06am 28 40 mph 1010.7mb 40f
7:00am 25 37 mph 1010.8mb 41f
6:54am 29 37 mph 1010.5mb 40f
6:48am 29 39 mph 1010.5mb 41f
6:42am 25 38 mph 1010.5mb 40f
6:36am 25 37 mph 1010.4mb 40f
6:30am 25 36 mph 1010.3mb 41f
6:24am 24 37 mph 1010.3mb 40f
6:18am 25 39 mph 1010.2mb 40f
6:12am 25 37 mph 1010.1mb 40f
6:06am 25 38 mph 1010mb 41f
6:00am 28 41 mph 1009.8mb 40f
5:54am 22 37 mph 1009.8mb 41f
5:48am 25 37 mph 1009.6mb 40f
5:42am 25 39 mph 1009.8mb 40f
5:36am 31 39 mph 1009.5mb 40f
5:30am 25 38 mph 1009.5mb 41f
5:24am 23 34 mph 1009.4mb 41f
5:18am 22 33 mph 1009.4mb 41f
5:12am 24 37 mph 1009.5mb 41f
5:06am 29 39 mph 1009.2mb 41f
5:00am 24 37 mph 1009.3mb 41f
4:54am 24 38 mph 1009.2mb 41f
4:48am 28 38 mph 1009.2mb 41f
4:42am 31 40 mph 1009.1mb 41f
4:36am 34 41 mph 1009mb 41f
4:30am 32 39 mph 1009mb 41f
4:24am 33 44 mph 1008.8mb 41f
4:18am 29 45 mph 1008.9mb 42f
4:12am 29 44 mph 1008.8mb 42f
4:06am 29 45 mph 1008.6mb 42f
4:00am 37 45 mph 1008.5mb 42f
3:54am 33 44 mph 1008.6mb 42f
3:48am 36 43 mph 1008.6mb 42f
3:42am 34 43 mph 1008.6mb 42f
3:36am 32 44 mph 1008.6mb 42f
3:30am 33 45 mph 1008.6mb 42f
3:24am 40 47 mph 1008.4mb 41f
3:18am 34 44 mph 1008.5mb 41f
3:12am 34 44 mph 1008.5mb 41f
3:06am 39 51 mph 1008.4mb 41f
3:00am 34 48 mph 1008.4mb 41f
2:54am 37 48 mph 1008.3mb 41f
2:48am 39 48 mph 1008.2mb 42f
2:42am 37 46 mph 1008.2mb 42f
2:36am 30 40 mph 1008.2mb 42f
2:30am 33 40 mph 1008.2mb 42f
2:24am 29 39 mph 1008.2mb 42f
2:18am 32 40 mph 1008.1mb 42f
2:12am 36 40 mph 1008mb 41f
2:06am 32 43 mph 1007.9mb 41f
2:00am 32 40 mph 1007.7mb 41f
1:54am 37 43 mph 1007.5mb 41f
1:48am 36 44 mph 1007.4mb 41f
1:42am 32 44 mph 1007.3mb 42f
1:36am 33 44 mph 1007.2mb 42f
1:30am 32 44 mph 1007mb 43f
1:24am 38 45 mph 1006.9mb 43f
1:18am 37 45 mph 1006.8mb 43f
1:12am 38 45 mph 1006.6mb 43f
1:06am 36 45 mph 1006.6mb 43f
1:00am 36 45 mph 1006.5mb 43f
12:54am 37 44 mph 1006.4mb 43f
12:48am 36 43 mph 1006.4mb 43f
12:42am 30 40 mph 1006.3mb 43f
12:36am 34 40 mph 1006.2mb 43f
12:30am 33 45 mph 1006mb 42f
12:24am 36 46 mph 1005.9mb 43f
12:18am 37 43 mph 1005.9mb 43f
12:12am 37 45 mph 1005.8mb 43f
12:06am 37 43 mph 1005.7mb 42f
12:00am 38 46 mph 1005.7mb 42f
Mon 11/24 11:54pm 37 51 mph 1005.8mb 42f
11:48pm 39 49 mph 1005.7mb 42f
11:42pm 38 49 mph 1005.7mb 42f
11:36pm 41 49 mph 1005.7mb 42f
11:30pm 39 46 mph 1005.9mb 42f
11:24pm 38 46 mph 1005.8mb 42f
11:18pm 34 41 mph 1005.8mb 42f
11:12pm 36 46 mph 1005.8mb 42f
11:06pm 37 44 mph 1005.7mb 42f
11:00pm 38 45 mph 1005.5mb 43f
10:54pm 33 44 mph 1005.5mb 43f
10:48pm 36 43 mph 1005.1mb 43f
10:42pm 33 45 mph 1005mb 44f
10:36pm 32 43 mph 1004.9mb 43f
10:30pm 36 45 mph 1004.8mb 43f
10:24pm 37 44 mph 1004.7mb 43f
10:18pm 36 43 mph 1004.6mb 43f
10:12pm 33 40 mph 1004.6mb 43f
10:06pm 33 40 mph 1004.6mb 43f
10:00pm 34 40 mph 1004.4mb 42f
9:54pm 32 40 mph 1004.4mb 43f
9:48pm 34 44 mph 1004.1mb 43f
9:42pm 39 52 mph 1003.9mb 45f
9:36pm 45 53 mph 1003.6mb 46f
9:30pm 45 52 mph 1003.4mb 45f
9:24pm 36 48 mph 1003.4mb 45f
9:18pm 34 44 mph 1003.4mb 45f
9:12pm 34 44 mph 1003.3mb 45f
9:06pm 37 47 mph 1003.2mb 45f
9:00pm 34 43 mph 1003.1mb 44f
8:54pm 36 44 mph 1003mb 44f
8:48pm 40 48 mph 1002.8mb 44f
8:42pm 37 48 mph 1002.9mb 44f
8:36pm 34 45 mph 1002.8mb 44f
8:30pm 33 46 mph 1002.8mb 44f
8:24pm 38 46 mph 1002.6mb 44f
8:18pm 38 46 mph 1002.5mb 44f
8:12pm 37 47 mph 1002.4mb 44f
8:06pm 39 47 mph 1002.3mb 44f
8:00pm 37 47 mph 1002.2mb 44f
7:54pm 34 45 mph 1002.2mb 44f
7:48pm 34 45 mph 1002.1mb 44f
7:42pm 32 38 mph 1002mb 44f
7:36pm 34 41 mph 1001.9mb 44f
7:30pm 33 44 mph 1001.8mb 44f
7:24pm 36 45 mph 1001.6mb 44f
7:18pm 37 45 mph 1001.5mb 44f
7:12pm 33 43 mph 1001.5mb 44f
7:06pm 36 43 mph 1001.4mb 44f
7:00pm 37 45 mph 1001.2mb 44f
6:54pm 36 44 mph 1001.1mb 44f
6:48pm 34 45 mph 1001mb 44f
6:42pm 33 45 mph 1000.9mb 44f
6:36pm 37 48 mph 1000.6mb 44f
6:30pm 33 43 mph 1000.6mb 44f
6:24pm 32 44 mph 1000.6mb 44f
6:18pm 34 45 mph 1000.4mb 44f
6:12pm 36 43 mph 1000.2mb 45f
6:06pm 34 41 mph 1000.1mb 45f
6:00pm 32 46 mph 1000mb 45f
5:54pm 36 44 mph 999.8mb 45f
5:48pm 33 49 mph 999.6mb 45f
5:42pm 37 49 mph 999.4mb 46f
5:36pm 37 45 mph 999.2mb 46f
5:30pm 37 53 mph 999mb 46f
5:24pm 39 45 mph 998.8mb 46f
5:18pm 38 47 mph 998.5mb 47f
5:12pm 38 49 mph 998.3mb 47f
5:06pm 38 48 mph 998.1mb 47f
5:00pm 38 48 mph 998mb 47f
4:54pm 39 47 mph 997.7mb 47f
4:48pm 40 46 mph 997.4mb 48f
4:42pm 36 44 mph 997.3mb 47f
4:36pm 36 45 mph 997.1mb 47f
4:30pm 37 47 mph 997mb 47f
4:24pm 39 46 mph 996.9mb 47f
4:18pm 33 46 mph 996.7mb 47f
4:12pm 39 45 mph 996.5mb 47f
4:06pm 36 47 mph 996.2mb 48f
4:00pm 33 39 mph 996mb 48f
3:54pm 33 43 mph 995.7mb 49f
3:48pm 33 41 mph 995.5mb 49f
3:42pm 30 39 mph 995.3mb 50f
3:36pm 30 44 mph 995.2mb 50f
3:30pm 29 34 mph 994.9mb 51f
3:24pm 21 24 mph 993.7mb 51f
3:18pm 17 21 mph 993.6mb 50f
3:12pm 18 22 mph 993.4mb 49f
3:06pm 18 24 mph 993.3mb 49f
3:00pm 20 28 mph 993.4mb 49f
2:54pm 22 26 mph 993.1mb 49f
2:48pm 25 32 mph 992.8mb 50f
2:42pm 25 32 mph 992.7mb 50f
2:36pm 29 41 mph 992.5mb 50f
2:30pm 28 40 mph 992.9mb 49f
2:24pm 26 36 mph 993.2mb 49f
2:18pm 29 40 mph 992.8mb 50f
2:12pm 34 43 mph 992.4mb 50f
2:06pm 36 43 mph 992.4mb 50f
2:00pm 36 41 mph 992.5mb 51f
1:54pm 29 36 mph 992.5mb 50f
1:48pm 28 33 mph 992.4mb 50f
1:42pm 23 29 mph 992.2mb 49f
1:36pm 25 32 mph 992mb 50f
1:30pm 30 37 mph 991.8mb 50f
1:18pm 25 30 mph 991.3mb 52f
1:12pm 18 23 mph 990.1mb 55f
1:06pm 20 26 mph 989.9mb 56f
1:00pm 24 30 mph 989.9mb 58f
12:54pm 28 32 mph 989.9mb 59f
12:48pm 22 29 mph 989.9mb 58f
12:42pm 24 41 mph 989.8mb 58f
12:36pm 26 34 mph 989.7mb 59f
12:30pm 20 25 mph 989.7mb 56f
12:24pm 23 30 mph 989.6mb 57f
12:18pm 26 33 mph 989.6mb 59f
12:12pm 28 34 mph 989.7mb 58f
12:06pm 28 40 mph 989.5mb 59f
12:00pm 25 33 mph 989.5mb 60f
11:54am 18 24 mph 989.5mb 58f
11:48am 18 25 mph 989.6mb 56f
11:42am 17 22 mph 989.6mb 57f
11:36am 17 22 mph 989.7mb 57f
11:30am 15 22 mph 989.7mb 56f
11:24am 17 21 mph 989.8mb 57f
11:18am 18 24 mph 989.7mb 58f
11:12am 18 23 mph 989.8mb 58f
11:06am 16 20 mph 989.9mb 57f
11:00am 17 22 mph 990mb 56f
10:54am 17 21 mph 990.1mb 57f
10:48am 17 21 mph 990.2mb 56f
10:42am 17 21 mph 990.3mb 57f
10:36am 16 21 mph 990.6mb 56f
10:30am 17 21 mph 990.8mb 56f
10:24am 17 21 mph 990.9mb 56f
10:18am 17 21 mph 991mb 56f
10:12am 14 24 mph 991.1mb 55f
10:06am 17 21 mph 990.9mb 56f
10:00am 14 18 mph 991.1mb 54f
9:54am 16 18 mph 991.2mb 55f
9:48am 14 18 mph 991.4mb 54f
9:42am 15 18 mph 991.5mb 54f
9:36am 14 20 mph 991.6mb 54f
9:30am 14 18 mph 991.7mb 54f
9:24am 14 18 mph 991.7mb 54f
9:18am 15 18 mph 991.8mb 54f
9:12am 14 18 mph 991.8mb 54f
9:06am 15 23 mph 991.8mb 55f
9:00am 18 24 mph 991.7mb 55f
8:54am 22 28 mph 991.6mb 56f
8:48am 21 24 mph 991.6mb 55f
8:42am 17 21 mph 991.5mb 55f
8:36am 17 21 mph 991.7mb 55f
8:30am 15 18 mph 991.9mb 53f
8:24am 17 22 mph 992mb 54f
8:18am 20 24 mph 991.8mb 55f
8:12am 17 22 mph 991.8mb 54f
8:06am 21 29 mph 991.8mb 55f
8:00am 21 24 mph 991.8mb 54f
7:54am 21 23 mph 991.9mb 54f
7:48am 20 22 mph 991.9mb 54f
7:42am 20 22 mph 991.9mb 54f
7:36am 20 24 mph 991.9mb 54f
7:30am 20 23 mph 992mb 53f
7:24am 20 23 mph 991.9mb 55f
7:18am 18 23 mph 991.9mb 55f
7:12am 15 21 mph 992.1mb 53f
7:06am 17 23 mph 991.9mb 54f
7:00am 20 22 mph 991.7mb 55f
6:54am 20 23 mph 991.7mb 54f
6:48am 18 22 mph 991.8mb 54f
6:42am 17 24 mph 991.9mb 54f
6:36am 16 21 mph 991.9mb 52f
6:30am 17 22 mph 991.8mb 53f
6:24am 17 22 mph 991.7mb 53f
6:18am 20 25 mph 991.6mb 53f
6:06am 18 23 mph 991.5mb 53f
6:00am 21 22 mph 991.5mb 53f
5:54am 18 25 mph 991.5mb 53f
5:48am 23 28 mph 991.3mb 54f
5:42am 24 29 mph 991.1mb 54f
5:36am 23 30 mph 991mb 54f
5:30am 24 31 mph 991mb 54f
5:24am 26 31 mph 990.8mb 55f
5:18am 26 30 mph 990.7mb 54f
5:12am 25 31 mph 990.6mb 54f
5:06am 25 29 mph 990.5mb 54f
5:00am 26 31 mph 990.5mb 55f
4:54am 24 30 mph 990.4mb 54f
4:48am 24 29 mph 990.4mb 54f
4:42am 17 26 mph 990.6mb 53f
4:36am 21 28 mph 990.6mb 53f
4:30am 17 26 mph 990.7mb 53f
4:24am 17 24 mph 990.8mb 52f
4:18am 21 29 mph 990.8mb 53f
4:12am 16 22 mph 990.7mb 54f
4:06am 15 22 mph 990.8mb 53f
4:00am 21 26 mph 990.8mb 54f
3:54am 17 26 mph 990.9mb 54f
3:48am 16 22 mph 991.1mb 53f
3:42am 16 24 mph 991.2mb 53f
3:36am 18 28 mph 991.3mb 53f
3:30am 20 26 mph 991.3mb 53f
3:24am 20 25 mph 991.5mb 53f
3:18am 17 26 mph 991.6mb 53f
3:12am 17 25 mph 991.6mb 53f
3:06am 18 26 mph 991.9mb 53f
3:00am 20 28 mph 992mb 53f
2:54am 16 23 mph 992.2mb 54f
2:48am 20 26 mph 992.3mb 53f
2:42am 20 25 mph 992.2mb 54f
2:36am 20 24 mph 992.6mb 53f
2:30am 16 22 mph 992.9mb 53f
2:24am 20 28 mph 993mb 53f
2:18am 17 26 mph 993mb 53f
2:12am 17 26 mph 992.8mb 53f
2:06am 21 29 mph 993.1mb 53f
2:00am 18 29 mph 993.2mb 52f
1:54am 17 26 mph 993.3mb 51f
1:48am 16 23 mph 993.4mb 51f
1:42am 16 23 mph 993.8mb 51f
1:36am 16 22 mph 993.8mb 51f
1:30am 18 25 mph 994mb 51f
1:24am 18 22 mph 994.2mb 51f
1:18am 18 29 mph 994.3mb 51f
1:12am 21 29 mph 994.4mb 51f
1:06am 18 25 mph 994.6mb 51f
1:00am 17 24 mph 994.6mb 51f
12:54am 15 25 mph 995.2mb 50f
12:48am 15 21 mph 995.6mb 50f
12:42am 14 30 mph 995.9mb 52f
12:36am 18 23 mph 995.7mb 53f
12:30am 16 29 mph 996mb 52f
12:24am 17 22 mph 996.2mb 52f
12:18am 14 17 mph 996.6mb 52f
12:12am 11 17 mph 997.2mb 51f
12:06am 11 18 mph 997.8mb 51f
12:00am 11 14 mph 998.1mb 51f
Sun 11/23 11:54pm 10 14 mph 998.3mb 52f
11:48pm 9 15 mph 998.4mb 52f
11:42pm 10 18 mph 998.5mb 52f
11:36pm 13 18 mph 998.9mb 52f
11:30pm 11 20 mph 999.2mb 51f
11:24pm 14 20 mph 999.6mb 51f
11:18pm 11 16 mph 999.8mb 51f
11:12pm 10 16 mph 1000.2mb 51f
11:06pm 8 11 mph 1000.6mb 51f
11:00pm 9 13 mph 1000.9mb 52f
10:54pm 8 14 mph 1001.2mb 51f
10:48pm 9 15 mph 1001.5mb 51f
10:42pm 8 13 mph 1001.9mb 50f
10:36pm 9 15 mph 1002.1mb 51f
10:30pm 9 16 mph 1002.3mb 50f
10:24pm 10 15 mph 1002.4mb 50f
10:18pm 10 15 mph 1002.5mb 50f
10:12pm 11 20 mph 1002.6mb 51f
10:06pm 8 14 mph 1002.8mb 51f
10:00pm 10 15 mph 1002.8mb 52f
9:54pm 8 14 mph 1002.8mb 53f
9:48pm 10 17 mph 1002.9mb 54f
9:42pm 13 17 mph 1002.9mb 54f
9:36pm 11 16 mph 1003mb 53f
9:30pm 13 18 mph 1003.1mb 53f
9:24pm 14 18 mph 1003.4mb 54f
9:18pm 11 16 mph 1003.7mb 53f
9:12pm 10 15 mph 1003.8mb 53f
9:06pm 8 14 mph 1004mb 53f
9:00pm 7 10 mph 1004.2mb 53f
8:54pm 7 11 mph 1004.3mb 53f
8:48pm 6 11 mph 1004.4mb 54f
8:42pm 5 9 mph 1004.6mb 54f
8:36pm 6 10 mph 1004.8mb 54f
8:30pm 7 10 mph 1004.9mb 53f
8:24pm 9 13 mph 1005.1mb 53f
8:18pm 10 15 mph 1005.2mb 53f
8:12pm 8 14 mph 1005.4mb 54f
8:06pm 8 11 mph 1005.5mb 53f
8:00pm 9 17 mph 1005.4mb 54f
7:54pm 14 22 mph 1005.4mb 55f
7:48pm 8 15 mph 1005.5mb 53f
7:42pm 8 14 mph 1005.5mb 54f
7:36pm 9 15 mph 1005.8mb 54f
7:30pm 7 10 mph 1006.1mb 53f
7:24pm 6 11 mph 1006.3mb 53f
7:18pm 7 10 mph 1006.3mb 53f
7:12pm 8 14 mph 1006.4mb 54f
7:06pm 7 14 mph 1006.5mb 53f
7:00pm 9 18 mph 1006.8mb 53f
6:54pm 13 17 mph 1007mb 52f
6:48pm 13 16 mph 1007.2mb 52f
6:42pm 10 15 mph 1007.5mb 52f
6:36pm 10 14 mph 1007.8mb 52f
6:30pm 11 15 mph 1008mb 51f
6:24pm 11 16 mph 1008.1mb 52f
6:18pm 11 15 mph 1008.2mb 52f
6:12pm 13 16 mph 1008.1mb 52f
6:06pm 13 16 mph 1008.1mb 52f
6:00pm 13 17 mph 1008mb 52f
5:54pm 14 18 mph 1008mb 51f
5:48pm 14 17 mph 1008.3mb 51f
5:42pm 13 17 mph 1008.5mb 52f
5:36pm 13 16 mph 1008.4mb 51f
5:30pm 13 18 mph 1008.4mb 51f
5:24pm 10 14 mph 1008.6mb 51f
5:18pm 10 14 mph 1008.8mb 51f
5:12pm 9 15 mph 1009mb 50f
5:06pm 11 16 mph 1009mb 50f
5:00pm 9 13 mph 1009.1mb 50f
4:54pm 8 11 mph 1009.2mb 50f
4:48pm 6 10 mph 1009.3mb 50f
4:42pm 6 8 mph 1009.3mb 51f
4:36pm 7 11 mph 1009.4mb 51f
4:30pm 7 11 mph 1009.5mb 50f
4:24pm 7 10 mph 1009.6mb 50f
4:18pm 6 9 mph 1009.9mb 50f
4:12pm 6 9 mph 1009.9mb 50f
4:06pm 6 8 mph 1010mb 50f
4:00pm 6 10 mph 1010.2mb 50f
3:54pm 6 10 mph 1010.5mb 51f
3:48pm 7 10 mph 1010.8mb 51f
3:42pm 3 6 mph 1010.9mb 50f
3:36pm 5 10 mph 1011mb 50f
3:30pm 8 11 mph 1011mb 51f
3:24pm 8 11 mph 1011.2mb 51f
3:18pm 8 10 mph 1011.4mb 50f
3:12pm 7 10 mph 1011.5mb 50f
3:06pm 7 11 mph 1011.6mb 51f
3:00pm 7 10 mph 1011.4mb 50f
2:54pm 7 9 mph 1011.7mb 50f
2:48pm 7 10 mph - -
2:36pm 8 11 mph 1011.8mb 50f
2:30pm 7 10 mph 1011.8mb 50f
2:24pm 7 9 mph 1011.9mb 49f
2:18pm 7 9 mph 1012mb 49f
2:00pm 7 8 mph 1012.5mb 48f
1:54pm 6 8 mph 1012.6mb 47f
1:48pm 6 7 mph 1012.7mb 48f
1:42pm 6 7 mph 1012.7mb 48f
1:36pm 6 7 mph 1012.7mb 48f
1:30pm 6 8 mph 1012.8mb 48f
1:24pm 6 8 mph 1012.9mb 48f
1:18pm 6 9 mph 1012.9mb 48f
1:12pm 6 7 mph 1013.2mb 46f
1:06pm 6 7 mph 1013.5mb 46f
1:00pm 6 8 mph 1013.7mb 46f
12:54pm 6 9 mph 1013.7mb 47f
12:48pm 8 9 mph 1013.8mb 47f
12:42pm 8 9 mph 1013.7mb 46f
12:36pm 6 8 mph 1013.8mb 46f
12:30pm 6 8 mph 1014mb 46f
12:24pm 6 8 mph 1014.1mb 46f
12:18pm 6 7 mph 1014.2mb 46f
12:12pm 6 9 mph 1014.3mb 45f
12:06pm 8 11 mph 1014.2mb 46f
12:00pm 8 10 mph 1014.4mb 46f
11:54am 9 11 mph 1014.5mb 46f
11:48am 9 11 mph 1014.7mb 46f
11:42am 8 11 mph 1015mb 45f
11:36am 9 10 mph 1015mb 45f
11:30am 8 11 mph 1015.1mb 44f
11:24am 8 10 mph 1015.5mb 44f
11:18am 7 9 mph 1015.7mb 43f
11:12am 8 10 mph 1015.8mb 43f
11:06am 9 13 mph 1015.6mb 44f
11:00am 10 14 mph 1016mb 44f
10:54am 9 16 mph 1016.1mb 44f
10:48am 13 18 mph 1016.1mb 44f
10:42am 11 15 mph 1016.4mb 44f
10:36am 9 14 mph 1016.6mb 44f
10:30am 10 17 mph 1016.7mb 44f
10:24am 7 10 mph 1016.9mb 42f
10:18am 9 10 mph 1016.8mb 42f
10:12am 9 10 mph 1016.8mb 43f
10:06am 8 11 mph 1016.9mb 42f
10:00am 8 15 mph 1017mb 43f
9:54am 10 16 mph 1016.9mb 43f
9:48am 10 14 mph 1017mb 43f
9:42am 9 13 mph 1017mb 43f
9:36am 10 14 mph 1017.1mb 43f
9:30am 13 16 mph 1017.1mb 43f
9:24am 14 15 mph 1017.1mb 44f
9:18am 9 13 mph 1017mb 44f
9:12am 9 10 mph 1017.1mb 44f
9:06am 8 9 mph 1017mb 43f
9:00am 8 10 mph 1016.9mb 44f
8:54am 9 13 mph 1016.8mb 44f
8:48am 10 13 mph 1016.8mb 44f
8:42am 9 11 mph 1016.8mb 45f
8:36am 9 10 mph 1016.8mb 45f
8:30am 8 10 mph 1016.7mb 44f
8:24am 9 11 mph 1016.6mb 45f
8:18am 9 11 mph 1016.6mb 45f
8:12am 7 9 mph 1016.5mb 44f
8:06am 6 7 mph 1016.6mb 44f
8:00am 6 7 mph 1016.5mb 44f
7:54am 6 8 mph 1016.4mb 44f
7:48am 6 8 mph 1016.4mb 43f
7:42am 7 9 mph 1016.3mb 44f
7:36am 8 11 mph 1016.3mb 44f
7:30am 9 11 mph 1016.2mb 44f
7:24am 9 11 mph 1016.2mb 44f
7:18am 10 13 mph 1016.3mb 45f
7:12am 10 14 mph 1016.3mb 45f
7:06am 11 14 mph 1016.2mb 45f
7:00am 11 14 mph 1016.1mb 45f
6:54am 10 13 mph 1016.2mb 45f
6:48am 13 14 mph 1016mb 45f
6:42am 10 11 mph 1015.9mb 45f
6:36am 10 13 mph 1016mb 45f
6:30am 10 13 mph 1016mb 45f
6:24am 8 10 mph 1016mb 45f
6:18am 9 13 mph 1015.8mb 46f
6:06am 8 13 mph 1015.9mb 45f
6:00am 10 14 mph 1015.8mb 46f
5:54am 10 13 mph 1015.6mb 46f
5:48am 9 11 mph 1015.6mb 45f
5:42am 11 13 mph 1015.5mb 45f
5:36am 11 13 mph 1015.4mb 45f
5:30am 10 13 mph 1015.3mb 45f
5:24am 10 13 mph 1015.2mb 45f
5:18am 10 11 mph 1015.1mb 44f
5:12am 9 11 mph 1015.2mb 44f
5:06am 9 11 mph 1015.1mb 44f
5:00am 9 11 mph 1015mb 45f
4:54am 9 11 mph 1015.1mb 45f
4:48am 9 11 mph 1015mb 45f
4:42am 8 10 mph 1015.1mb 45f
4:36am 7 10 mph 1015.1mb 45f
4:30am 9 11 mph 1015mb 46f
4:24am 8 18 mph 1015mb 45f
4:18am 16 18 mph 1014.9mb 47f
4:12am 15 17 mph 1014.9mb 47f
4:06am 11 16 mph 1015mb 46f
4:00am 10 17 mph 1015.1mb 46f
3:54am 10 14 mph 1015.2mb 46f
3:48am 7 9 mph 1015.2mb 45f
3:42am 6 9 mph 1015.3mb 45f
3:36am 5 6 mph 1015.3mb 44f
3:30am 5 7 mph 1015.2mb 44f
3:24am 2 6 mph 1015.1mb 43f
3:18am 5 9 mph 1015.2mb 43f
3:12am 8 10 mph 1015.1mb 44f
3:06am 8 11 mph 1015.1mb 44f
3:00am 9 13 mph 1014.9mb 44f
2:54am 9 13 mph 1014.9mb 44f
2:48am 9 14 mph 1014.9mb 45f
2:42am 10 14 mph 1014.8mb 45f
2:36am 10 13 mph 1014.9mb 44f
2:30am 13 15 mph 1014.9mb 44f
2:24am 13 15 mph 1014.9mb 44f
2:18am 11 14 mph 1014.8mb 44f
2:12am 11 15 mph 1014.8mb 44f
2:06am 13 15 mph 1014.8mb 44f
2:00am 11 14 mph 1014.9mb 43f
1:54am 11 14 mph 1015mb 43f
1:48am 11 14 mph 1015mb 43f
1:42am 13 15 mph 1015.1mb 43f
1:36am 14 15 mph 1015.1mb 43f
1:30am 14 15 mph 1015.1mb 43f
1:24am 11 14 mph 1015.3mb 43f
1:18am 13 15 mph 1015.2mb 43f
1:12am 11 14 mph 1015.2mb 43f
1:06am 11 14 mph 1015.2mb 42f
1:00am 13 15 mph 1015.2mb 43f
12:54am 11 14 mph 1015.2mb 42f
12:48am 13 15 mph 1015.2mb 42f
12:42am 10 14 mph 1015.3mb 42f
12:36am 11 14 mph 1015.1mb 43f
12:30am 9 13 mph 1015.1mb 43f
12:24am 9 13 mph 1015.2mb 43f
12:18am 11 15 mph 1015.3mb 42f
12:12am 13 15 mph 1015.3mb 42f
12:06am 11 16 mph 1015.5mb 43f
12:00am 15 17 mph 1015.6mb 44f
Sat 11/22 11:54pm 9 11 mph 1015.6mb 43f
11:48pm 9 13 mph 1015.5mb 43f
11:42pm 10 14 mph 1015.5mb 42f
11:36pm 8 10 mph 1015.6mb 42f
11:30pm 10 16 mph 1015.6mb 43f
11:24pm 15 20 mph 1015.5mb 44f
11:18pm 16 21 mph 1015.5mb 44f
11:12pm 11 22 mph 1015.4mb 43f
11:06pm 8 13 mph 1015.3mb 42f
11:00pm 9 11 mph 1015.1mb 42f
10:54pm 10 13 mph 1015mb 42f
10:48pm 9 14 mph 1015mb 42f
10:42pm 13 14 mph 1014.9mb 42f
10:36pm 11 15 mph 1014.9mb 42f
10:30pm 14 16 mph 1014.8mb 42f
10:24pm 14 16 mph 1014.8mb 42f
10:18pm 13 15 mph 1014.8mb 42f
10:12pm 11 15 mph 1014.7mb 41f
10:06pm 11 14 mph 1014.7mb 41f
10:00pm 10 11 mph 1014.7mb 41f
9:54pm 8 11 mph 1014.8mb 41f
9:48pm 9 11 mph 1014.9mb 41f
9:42pm 9 13 mph 1015.1mb 41f
9:36pm 10 15 mph 1015mb 42f
9:30pm 11 15 mph 1015mb 43f
9:24pm 10 15 mph 1014.9mb 43f
9:18pm 11 16 mph 1014.9mb 43f
9:12pm 13 16 mph 1014.8mb 43f
9:06pm 11 16 mph 1014.8mb 43f
9:00pm 11 15 mph 1014.8mb 43f
8:54pm 13 20 mph 1014.9mb 42f
8:48pm 9 14 mph 1015mb 41f
8:42pm 13 15 mph 1015mb 41f
8:36pm 13 14 mph 1014.9mb 41f
8:30pm 13 14 mph 1014.9mb 41f
8:24pm 13 16 mph 1014.8mb 42f
8:18pm 14 16 mph 1014.8mb 42f
8:12pm 15 17 mph 1014.7mb 42f
8:06pm 15 17 mph 1014.8mb 42f
8:00pm 11 17 mph 1014.8mb 41f
7:54pm 15 17 mph 1014.9mb 41f
7:48pm 15 17 mph 1014.9mb 42f
7:42pm 14 16 mph 1014.9mb 42f
7:36pm 14 16 mph 1014.9mb 42f
7:30pm 14 16 mph 1014.8mb 42f
7:24pm 15 18 mph 1014.9mb 41f
7:18pm 13 17 mph 1015mb 41f
7:12pm 13 16 mph 1015.1mb 41f
7:06pm 15 18 mph 1015mb 41f
7:00pm 15 18 mph 1015mb 41f
6:54pm 16 18 mph 1015mb 41f
6:48pm 14 17 mph 1015.1mb 41f
6:42pm 15 17 mph 1015mb 41f
6:36pm 14 17 mph 1015mb 41f
6:30pm 13 14 mph 1015.1mb 41f
6:24pm 11 16 mph 1015mb 41f
6:18pm 13 16 mph 1015mb 42f
6:12pm 10 14 mph 1015.1mb 41f
6:06pm 11 15 mph 1015mb 41f
6:00pm 14 16 mph 1015mb 41f
5:54pm 14 17 mph 1015mb 41f
5:48pm 14 17 mph 1015mb 41f
5:42pm 16 18 mph 1015mb 41f
5:36pm 15 17 mph 1015mb 41f
5:30pm 14 15 mph 1015mb 41f
5:24pm 14 16 mph 1015.1mb 41f
5:18pm 15 18 mph 1015.1mb 41f
5:12pm 16 18 mph 1015mb 41f
5:06pm 14 17 mph 1015.1mb 41f
5:00pm 15 17 mph 1015.1mb 41f
4:54pm 14 16 mph 1015.2mb 41f
4:48pm 15 17 mph 1015mb 42f
4:42pm 14 16 mph 1015.1mb 41f
4:36pm 10 13 mph 1015.2mb 42f
4:30pm 9 14 mph 1015.3mb 42f
4:24pm 10 14 mph 1015.3mb 42f
4:18pm 13 15 mph 1015.1mb 42f
4:12pm 13 15 mph 1015.1mb 42f
4:06pm 13 16 mph 1015.1mb 42f
4:00pm 13 17 mph 1015.2mb 42f
3:54pm 13 17 mph 1015.2mb 42f
3:48pm 11 15 mph 1015.2mb 42f
3:42pm 11 16 mph 1015.2mb 42f
3:36pm 11 17 mph 1015.3mb 42f
3:30pm 13 16 mph 1015.2mb 42f
3:24pm 13 17 mph 1015.3mb 42f
3:18pm 14 17 mph 1015.3mb 42f
3:12pm 15 17 mph 1015.4mb 42f
3:06pm 15 17 mph 1015.5mb 42f
3:00pm 15 18 mph 1015.4mb 42f
2:54pm 16 18 mph 1015.4mb 42f
2:48pm 16 18 mph 1015.3mb 42f
2:42pm 16 20 mph 1015.3mb 41f
2:36pm 17 21 mph 1015.3mb 42f
2:30pm 17 22 mph 1015.2mb 42f
2:24pm 17 22 mph 1015.3mb 42f
2:18pm 17 21 mph 1015.3mb 42f
2:12pm 13 18 mph 1015.4mb 41f
2:06pm 17 21 mph 1015.3mb 42f
2:00pm 17 21 mph 1015.3mb 42f
1:54pm 17 21 mph 1015.3mb 42f
1:48pm 17 23 mph 1015.3mb 41f
1:42pm 17 22 mph 1015.3mb 41f
1:36pm 15 20 mph 1015.3mb 41f
1:30pm 13 26 mph 1015.4mb 40f
1:24pm 22 29 mph 1015.3mb 42f
1:18pm 23 28 mph 1015.4mb 42f
1:12pm 21 24 mph 1015.4mb 42f
1:06pm 18 26 mph 1015.4mb 41f
1:00pm 13 18 mph 1015.6mb 39f
12:54pm 15 20 mph 1015.6mb 38f
12:48pm 16 21 mph 1015.5mb 38f
12:42pm 18 21 mph 1015.5mb 38f
12:36pm 15 18 mph 1015.7mb 38f
12:30pm 14 20 mph 1015.8mb 37f
12:24pm 15 21 mph 1015.9mb 37f
12:18pm 15 18 mph 1016mb 37f
12:12pm 15 20 mph 1016.3mb 37f
12:06pm 15 21 mph 1016.4mb 37f
12:00pm 14 21 mph 1016.5mb 36f
11:54am 16 24 mph 1016.6mb 36f
11:48am 17 22 mph 1016.7mb 36f
11:42am 15 21 mph 1016.7mb 36f
11:36am 16 22 mph 1016.8mb 36f
11:30am 13 18 mph 1017mb 37f
11:24am 13 17 mph 1017.1mb 37f
11:18am 13 18 mph 1017.2mb 36f
11:12am 15 20 mph 1017.3mb 36f
11:06am 14 18 mph 1017.4mb 36f
11:00am 11 18 mph 1017.5mb 35f
10:54am 13 17 mph 1017.7mb 35f
10:48am 14 17 mph 1017.9mb 35f
10:42am 13 20 mph 1018.1mb 35f
10:36am 14 20 mph 1018.3mb 35f
10:30am 14 17 mph 1018.4mb 34f
10:24am 15 22 mph 1018.5mb 34f
10:18am 15 23 mph 1018.7mb 35f
10:12am 15 23 mph 1018.8mb 35f
10:06am 15 18 mph 1019mb 35f
10:00am 14 22 mph 1019.2mb 35f
9:54am 15 21 mph 1019.2mb 35f
9:48am 15 20 mph 1019.3mb 35f
9:42am 15 21 mph 1019.4mb 35f
9:36am 14 20 mph 1019.7mb 35f
9:30am 15 20 mph 1019.8mb 35f
9:24am 14 21 mph 1019.9mb 35f
9:18am 15 22 mph 1020mb 35f
9:12am 15 18 mph 1020mb 34f
9:06am 16 23 mph 1020.3mb 34f
9:00am 17 23 mph 1020.5mb 34f
8:54am 14 21 mph 1020.4mb 34f
8:48am 15 21 mph 1020.6mb 34f
8:42am 16 20 mph 1020.6mb 34f
8:36am 15 22 mph 1020.8mb 34f
8:30am 15 23 mph 1021mb 33f
8:24am 15 20 mph 1021mb 33f
8:18am 15 20 mph 1020.8mb 33f
8:12am 16 22 mph 1021mb 33f
8:06am 16 22 mph 1021.3mb 33f
8:00am 16 22 mph 1021.3mb 33f
7:54am 16 21 mph 1021.3mb 33f
7:48am 15 23 mph 1021.5mb 33f
7:42am 15 18 mph 1021.6mb 32f
7:36am 15 21 mph 1021.8mb 32f
7:30am 16 21 mph 1021.7mb 32f
7:24am 16 20 mph 1021.9mb 32f
7:18am 16 22 mph 1022.1mb 31f
7:12am 16 21 mph 1022.1mb 31f
7:06am 17 20 mph 1022.1mb 31f
7:00am 15 21 mph 1022.2mb 31f
6:54am 15 21 mph 1022.3mb 31f
6:48am 16 20 mph 1022.2mb 31f
6:42am 16 22 mph 1022.3mb 31f
6:36am 15 20 mph 1022.5mb 31f
6:30am 16 21 mph 1022.3mb 31f
6:24am 14 20 mph 1022.4mb 31f
6:18am 15 25 mph 1022.6mb 31f
6:12am 20 24 mph 1022.9mb 31f
6:06am 15 20 mph 1022.9mb 30f
6:00am 14 22 mph 1022.9mb 30f
5:54am 15 21 mph 1023mb 29f
5:48am 15 21 mph 1022.9mb 29f
5:42am 16 25 mph 1022.8mb 29f
5:36am 16 20 mph 1022.8mb 29f
5:30am 18 25 mph 1022.9mb 29f
5:24am 18 23 mph 1023mb 29f
5:18am 17 22 mph 1023.1mb 29f
5:12am 16 22 mph 1023.2mb 29f
5:06am 16 20 mph 1023.3mb 28f
5:00am 15 21 mph 1023.3mb 29f
4:54am 17 22 mph 1023.3mb 28f
4:48am 17 22 mph 1023.5mb 28f
4:42am 16 22 mph 1023.6mb 28f
4:36am 17 22 mph 1023.8mb 28f
4:30am 16 22 mph 1024mb 28f
4:24am 16 22 mph 1024.2mb 28f
4:18am 15 21 mph 1024.3mb 27f
4:12am 16 22 mph 1024.4mb 27f
4:06am 15 22 mph 1024.5mb 27f
4:00am 17 21 mph 1024.6mb 27f
3:54am 17 21 mph 1024.7mb 27f
3:48am 16 23 mph 1024.9mb 27f
3:42am 15 21 mph 1025.1mb 27f
3:36am 16 23 mph 1025.1mb 27f
3:30am 16 21 mph 1025.1mb 27f
3:24am 17 23 mph 1025.2mb 27f
3:18am 17 23 mph 1025.3mb 27f